Time,TemperatureF,DewpointF,PressureIn,WindDirection,WindDirectionDegrees,WindSpeedMPH,WindSpeedGustMPH,Humidity,HourlyPrecipIn,Conditions,Clouds,dailyrainin,SoftwareType,DateUTC
2013-03-19 00:02:00,61.0,61.0,29.88,South,180,6.0,-999.0,100,0.00,,,-99.99,,2013-03-19 04:02:00,
2013-03-19 00:22:00,64.0,64.0,29.88,SSW,210,9.0,18.0,100,0.00,,,-99.99,,2013-03-19 04:22:00,
2013-03-19 00:32:00,63.0,63.0,29.91,NW,310,15.0,30.0,100,0.00,,,-99.99,,2013-03-19 04:32:00,
2013-03-19 00:42:00,63.0,63.0,29.91,NW,310,15.0,30.0,100,0.00,,,-99.99,,2013-03-19 04:42:00,
2013-03-19 00:52:00,57.0,57.0,29.93,NW,320,13.0,17.0,100,0.00,,,-99.99,,2013-03-19 04:52:00,
2013-03-19 01:02:00,57.0,57.0,29.93,NW,320,13.0,17.0,100,0.00,,,-99.99,,2013-03-19 05:02:00,
2013-03-19 01:11:00,57.0,57.0,29.93,NW,320,13.0,17.0,100,0.00,,,-99.99,,2013-03-19 05:11:00,
2013-03-19 01:21:00,55.0,55.0,29.91,NNW,330,8.0,-999.0,100,0.00,,,-99.99,,2013-03-19 05:21:00,
2013-03-19 01:31:00,55.0,55.0,29.91,NW,310,7.0,-999.0,100,0.00,,,-99.99,,2013-03-19 05:31:00,
2013-03-19 01:42:00,55.0,55.0,29.91,NW,310,7.0,-999.0,100,0.00,,,-99.99,,2013-03-19 05:42:00,
2013-03-19 01:51:00,55.0,55.0,29.91,NW,310,7.0,-999.0,100,0.00,,,-99.99,,2013-03-19 05:51:00,
2013-03-19 02:01:00,55.0,55.0,29.91,NW,310,7.0,-999.0,100,0.00,,,-99.99,,2013-03-19 06:01:00,
2013-03-19 02:31:00,55.0,55.0,29.85,SW,220,5.0,-999.0,100,0.00,,,-99.99,,2013-03-19 06:31:00,
2013-03-19 02:41:00,55.0,55.0,29.85,SW,220,5.0,-999.0,100,0.00,,,-99.99,,2013-03-19 06:41:00,
2013-03-19 02:52:00,55.0,55.0,29.85,SW,220,5.0,-999.0,100,0.00,,,-99.99,,2013-03-19 06:52:00,
2013-03-19 03:01:00,55.0,55.0,29.85,SW,220,5.0,-999.0,100,0.00,,,-99.99,,2013-03-19 07:01:00,
2013-03-19 03:11:00,55.0,55.0,29.85,SW,220,5.0,-999.0,100,0.00,,,-99.99,,2013-03-19 07:11:00,
2013-03-19 03:21:00,55.0,55.0,29.83,North,0,0.0,-999.0,100,0.00,,,-99.99,,2013-03-19 07:21:00,
2013-03-19 03:31:00,55.0,55.0,29.84,West,260,7.0,-999.0,100,0.00,,,-99.99,,2013-03-19 07:31:00,
2013-03-19 03:41:00,55.0,55.0,29.85,WSW,250,7.0,-999.0,100,0.00,,,-99.99,,2013-03-19 07:41:00,
2013-03-19 03:51:00,55.0,55.0,29.85,WSW,250,7.0,-999.0,100,0.00,,,-99.99,,2013-03-19 07:51:00,
2013-03-19 04:02:00,55.0,55.0,29.85,WSW,250,7.0,-999.0,100,0.00,,,-99.99,,2013-03-19 08:02:00,
2013-03-19 04:11:00,55.0,55.0,29.85,WSW,250,7.0,-999.0,100,0.00,,,-99.99,,2013-03-19 08:11:00,
2013-03-19 04:21:00,55.0,55.0,29.85,WSW,250,7.0,-999.0,100,0.00,,,-99.99,,2013-03-19 08:21:00,
2013-03-19 08:31:00,54.0,54.0,29.91,WNW,290,9.0,21.0,100,0.00,,,0.00,,2013-03-19 12:31:00,
2013-03-19 08:42:00,54.0,54.0,29.91,WNW,290,9.0,21.0,100,0.00,,,0.00,,2013-03-19 12:42:00,
2013-03-19 08:51:00,54.0,54.0,29.91,WNW,300,9.0,18.0,100,0.00,,,0.00,,2013-03-19 12:51:00,
2013-03-19 09:01:00,54.0,54.0,29.91,WNW,300,9.0,18.0,100,0.00,,,0.00,,2013-03-19 13:01:00,
2013-03-19 09:11:00,54.0,54.0,29.91,WNW,300,9.0,18.0,100,0.00,,,-99.99,,2013-03-19 13:11:00,
2013-03-19 09:21:00,55.0,55.0,29.91,NW,310,8.0,-999.0,100,0.00,,,-99.99,,2013-03-19 13:21:00,
2013-03-19 09:31:00,55.0,55.0,29.91,NW,310,8.0,-999.0,100,0.00,,,-99.99,,2013-03-19 13:31:00,
2013-03-19 09:41:00,55.0,55.0,29.91,NW,310,8.0,17.0,100,0.00,,,-99.99,,2013-03-19 13:41:00,
2013-03-19 09:52:00,55.0,55.0,29.91,NW,310,8.0,17.0,100,0.00,,,-99.99,,2013-03-19 13:52:00,
2013-03-19 10:01:00,55.0,55.0,29.91,NW,310,8.0,17.0,100,0.00,,,-99.99,,2013-03-19 14:01:00,
2013-03-19 10:21:00,55.0,55.0,29.93,WNW,290,10.0,17.0,100,0.00,,,-99.99,,2013-03-19 14:21:00,
2013-03-19 10:31:00,55.0,55.0,29.93,WNW,290,10.0,17.0,100,0.00,,,-99.99,,2013-03-19 14:31:00,
2013-03-19 10:41:00,55.0,55.0,29.93,WNW,290,10.0,17.0,100,0.00,,,-99.99,,2013-03-19 14:41:00,
2013-03-19 10:51:00,55.0,55.0,29.93,WNW,290,10.0,17.0,100,0.00,,,-99.99,,2013-03-19 14:51:00,
2013-03-19 11:21:00,61.0,55.0,29.93,NW,320,10.0,18.0,82,0.00,,,-99.99,,2013-03-19 15:21:00,
2013-03-19 11:33:00,61.0,55.0,29.94,NW,320,14.0,20.0,82,0.00,,,-99.99,,2013-03-19 15:33:00,
2013-03-19 11:42:00,61.0,55.0,29.94,NW,320,14.0,20.0,82,0.00,,,-99.99,,2013-03-19 15:42:00,
2013-03-19 11:52:00,61.0,55.0,29.94,NW,320,14.0,20.0,82,0.00,,,-99.99,,2013-03-19 15:52:00,
2013-03-19 12:03:00,61.0,55.0,29.94,NW,320,14.0,20.0,82,0.00,,,-99.99,,2013-03-19 16:03:00,
2013-03-19 12:12:00,61.0,55.0,29.94,NW,320,14.0,20.0,82,0.00,,,-99.99,,2013-03-19 16:12:00,
2013-03-19 12:23:00,61.0,55.0,29.94,NW,320,13.0,17.0,82,0.00,,,-99.99,,2013-03-19 16:23:00,
2013-03-19 12:33:00,63.0,55.0,29.94,NW,320,13.0,17.0,77,0.00,,,-99.99,,2013-03-19 16:33:00,
2013-03-19 12:43:00,63.0,55.0,29.94,NW,320,13.0,17.0,77,0.00,,,-99.99,,2013-03-19 16:43:00,
2013-03-19 12:53:00,63.0,54.0,29.95,NW,310,15.0,23.0,72,0.00,,,-99.99,,2013-03-19 16:53:00,
2013-03-19 13:02:00,63.0,54.0,29.95,NW,310,15.0,23.0,72,0.00,,,-99.99,,2013-03-19 17:02:00,
2013-03-19 13:13:00,63.0,54.0,29.95,NW,310,15.0,23.0,72,0.00,,,-99.99,,2013-03-19 17:13:00,
2013-03-19 13:23:00,64.0,54.0,29.94,NNW,340,13.0,20.0,67,0.00,,,-99.99,,2013-03-19 17:23:00,
2013-03-19 13:33:00,66.0,55.0,29.94,NNW,340,12.0,17.0,68,0.00,,,-99.99,,2013-03-19 17:33:00,
2013-03-19 13:43:00,66.0,55.0,29.94,NNW,340,12.0,17.0,68,0.00,,,-99.99,,2013-03-19 17:43:00,
2013-03-19 13:52:00,66.0,55.0,29.94,NNW,340,12.0,17.0,68,0.00,,,-99.99,,2013-03-19 17:52:00,
2013-03-19 14:01:00,66.0,55.0,29.94,NNW,340,12.0,17.0,68,0.00,,,-99.99,,2013-03-19 18:01:00,
2013-03-19 14:12:00,66.0,55.0,29.94,NNW,340,12.0,17.0,68,0.00,,,-99.99,,2013-03-19 18:12:00,
2013-03-19 14:22:00,68.0,54.0,29.93,WNW,290,9.0,-999.0,59,0.00,,,-99.99,,2013-03-19 18:22:00,
2013-03-19 14:33:00,68.0,54.0,29.92,WNW,290,9.0,-999.0,59,0.00,,,-99.99,,2013-03-19 18:33:00,
2013-03-19 14:41:00,68.0,54.0,29.92,WNW,290,9.0,-999.0,59,0.00,,,-99.99,,2013-03-19 18:41:00,
2013-03-19 14:52:00,70.0,54.0,29.92,West,280,7.0,-999.0,56,0.00,,,-99.99,,2013-03-19 18:52:00,
2013-03-19 15:01:00,70.0,54.0,29.92,West,280,7.0,-999.0,56,0.00,,,-99.99,,2013-03-19 19:01:00,
2013-03-19 15:21:00,70.0,54.0,29.91,NW,320,10.0,17.0,56,0.00,,,-99.99,,2013-03-19 19:21:00,
2013-03-19 15:31:00,72.0,52.0,29.90,NW,320,10.0,-999.0,49,0.00,,,-99.99,,2013-03-19 19:31:00,
2013-03-19 15:41:00,72.0,52.0,29.90,NW,320,10.0,-999.0,49,0.00,,,-99.99,,2013-03-19 19:41:00,
2013-03-19 15:52:00,72.0,50.0,29.90,WNW,300,12.0,-999.0,46,0.00,,,-99.99,,2013-03-19 19:52:00,
2013-03-19 16:01:00,72.0,50.0,29.90,WNW,300,12.0,-999.0,46,0.00,,,-99.99,,2013-03-19 20:01:00,
2013-03-19 16:21:00,73.0,46.0,29.90,NW,310,12.0,16.0,38,0.00,,,-99.99,,2013-03-19 20:21:00,
2013-03-19 16:31:00,73.0,46.0,29.90,WNW,290,10.0,18.0,38,0.00,,,-99.99,,2013-03-19 20:31:00,
2013-03-19 16:41:00,73.0,46.0,29.90,WNW,290,10.0,18.0,38,0.00,,,-99.99,,2013-03-19 20:41:00,
2013-03-19 16:51:00,73.0,45.0,29.90,WNW,300,13.0,18.0,35,0.00,,,-99.99,,2013-03-19 20:51:00,
2013-03-19 17:01:00,73.0,45.0,29.90,WNW,300,13.0,18.0,35,0.00,,,-99.99,,2013-03-19 21:01:00,
2013-03-19 17:11:00,73.0,45.0,29.90,WNW,300,13.0,18.0,35,0.00,,,-99.99,,2013-03-19 21:11:00,
2013-03-19 17:21:00,73.0,45.0,29.91,WNW,300,12.0,18.0,35,0.00,,,-99.99,,2013-03-19 21:21:00,
2013-03-19 17:32:00,73.0,46.0,29.91,West,280,14.0,18.0,38,0.00,,,-99.99,,2013-03-19 21:32:00,
2013-03-19 17:42:00,73.0,46.0,29.91,West,280,14.0,18.0,38,0.00,,,-99.99,,2013-03-19 21:42:00,
2013-03-19 17:52:00,73.0,45.0,29.91,WNW,290,10.0,16.0,35,0.00,,,-99.99,,2013-03-19 21:52:00,
2013-03-19 18:02:00,73.0,45.0,29.91,WNW,290,10.0,16.0,35,0.00,,,-99.99,,2013-03-19 22:02:00,
2013-03-19 18:12:00,73.0,45.0,29.91,WNW,290,10.0,16.0,35,0.00,,,-99.99,,2013-03-19 22:12:00,
2013-03-19 18:22:00,72.0,43.0,29.92,WNW,300,10.0,21.0,35,0.00,,,-99.99,,2013-03-19 22:22:00,
2013-03-19 18:32:00,72.0,43.0,29.93,NW,310,12.0,-999.0,35,0.00,,,-99.99,,2013-03-19 22:32:00,
2013-03-19 18:42:00,72.0,43.0,29.93,NW,310,12.0,-999.0,35,0.00,,,-99.99,,2013-03-19 22:42:00,
2013-03-19 18:52:00,72.0,41.0,29.93,WNW,300,9.0,-999.0,33,0.00,,,-99.99,,2013-03-19 22:52:00,
2013-03-19 19:01:00,72.0,41.0,29.93,WNW,300,9.0,-999.0,33,0.00,,,-99.99,,2013-03-19 23:01:00,
2013-03-19 19:11:00,72.0,41.0,29.93,WNW,300,9.0,-999.0,33,0.00,,,-99.99,,2013-03-19 23:11:00,
2013-03-19 19:21:00,70.0,43.0,29.93,WNW,300,6.0,-999.0,37,0.00,,,-99.99,,2013-03-19 23:21:00,
2013-03-19 19:31:00,66.0,43.0,29.94,NW,310,5.0,-999.0,42,0.00,,,-99.99,,2013-03-19 23:31:00,
2013-03-19 19:42:00,66.0,43.0,29.94,NW,310,5.0,-999.0,42,0.00,,,-99.99,,2013-03-19 23:42:00,
2013-03-19 19:51:00,66.0,43.0,29.94,NW,310,5.0,-999.0,42,0.00,,,-99.99,,2013-03-19 23:51:00,
2013-03-19 20:01:00,66.0,43.0,29.94,NW,310,5.0,-999.0,42,0.00,,,-99.99,,2013-03-20 00:01:00,
2013-03-19 20:31:00,57.0,46.0,29.96,North,0,0.0,-999.0,67,0.00,,,-99.99,,2013-03-20 00:31:00,
2013-03-19 20:41:00,57.0,46.0,29.96,North,0,0.0,-999.0,67,0.00,,,-99.99,,2013-03-20 00:41:00,
2013-03-19 20:51:00,55.0,46.0,29.96,North,0,0.0,-999.0,71,0.00,,,-99.99,,2013-03-20 00:51:00,
2013-03-19 21:03:00,55.0,46.0,29.96,North,0,0.0,-999.0,71,0.00,,,-99.99,,2013-03-20 01:03:00,
2013-03-19 21:21:00,50.0,46.0,29.97,North,0,0.0,-999.0,87,0.00,,,-99.99,,2013-03-20 01:21:00,
2013-03-19 21:31:00,50.0,46.0,29.97,North,0,0.0,-999.0,87,0.00,,,-99.99,,2013-03-20 01:31:00,
2013-03-19 21:43:00,50.0,46.0,29.97,North,0,0.0,-999.0,87,0.00,,,-99.99,,2013-03-20 01:43:00,
2013-03-19 21:52:00,48.0,46.0,29.98,North,0,0.0,-999.0,93,0.00,,,-99.99,,2013-03-20 01:52:00,
2013-03-19 22:02:00,48.0,46.0,29.98,North,0,0.0,-999.0,93,0.00,,,-99.99,,2013-03-20 02:02:00,
2013-03-19 22:11:00,48.0,46.0,29.98,North,0,0.0,-999.0,93,0.00,,,-99.99,,2013-03-20 02:11:00,
2013-03-19 22:21:00,48.0,46.0,29.99,North,0,0.0,-999.0,93,0.00,,,-99.99,,2013-03-20 02:21:00,
2013-03-19 22:31:00,46.0,45.0,29.99,North,0,0.0,-999.0,93,0.00,,,-99.99,,2013-03-20 02:31:00,
2013-03-19 22:41:00,46.0,45.0,29.99,North,0,0.0,-999.0,93,0.00,,,-99.99,,2013-03-20 02:41:00,
2013-03-19 22:52:00,48.0,45.0,30.00,North,0,0.0,-999.0,87,0.00,,,-99.99,,2013-03-20 02:52:00,
2013-03-19 23:01:00,48.0,45.0,30.00,North,0,0.0,-999.0,87,0.00,,,-99.99,,2013-03-20 03:01:00,
2013-03-19 23:11:00,48.0,45.0,30.00,North,0,0.0,-999.0,87,0.00,,,-99.99,,2013-03-20 03:11:00,
2013-03-19 23:21:00,48.0,45.0,30.00,North,0,0.0,-999.0,87,0.00,,,-99.99,,2013-03-20 03:21:00,
2013-03-19 23:32:00,48.0,45.0,30.01,North,0,0.0,-999.0,87,0.00,,,-99.99,,2013-03-20 03:32:00,
2013-03-19 23:42:00,48.0,45.0,30.01,North,0,0.0,-999.0,87,0.00,,,-99.99,,2013-03-20 03:42:00,
2013-03-19 23:52:00,46.0,45.0,30.01,North,0,0.0,-999.0,93,0.00,,,-99.99,,2013-03-20 03:52:00,